Weather History for 41217 - November, 2013

Change the Weather History Date:

Tuesday, November 19, 2013

  Actual Average Record
Temperature  
Mean Temperature 80 °F -  
Max Temperature 88 °F 81 °F - ()
Min Temperature 71 °F 61 °F - ()
Cooling Degree Days 14    
Growing Degree Days 30 (Base 50)    
Moisture  
Dew Point 60 °F    
Average Humidity 52    
Maximum Humidity 69    
Minimum Humidity 24    
Precipitation  
Precipitation 0.00 in 0.01 in - ()
Sea Level Pressure  
Sea Level Pressure 29.96 in    
Wind  
Wind Speed 8 mph ()    
Max Wind Speed 16 mph    
Max Gust Speed -    
Visibility 5.6 miles    
Events      
T = Trace of Precipitation, MM = Missing Value Source: Averaged Metar Reports

Daily Weather History Graph

Daily Weather History Graph

Search for Another Location

Airport or City:

Trip Planner

Search our weather history database for the weather conditions in past years. The results will help you decide how hot, cold, wet, or windy it might be!

Date:

Astronomy

Nov. 19, 2013 Rise Set
Actual Time 6:39 AM GST 5:33 PM GST
Civil Twilight 6:15 AM GST 5:57 PM GST
Nautical Twilight 5:47 AM GST 6:25 PM GST
Astronomical Twilight 5:20 AM GST 6:52 PM GST
Moon 7:06 PM GST (11/19) 7:57 AM GST (11/19)
Length of Visible Light 11h 42m
Length of Day
10h 53m
Full, 97% of the Moon is Illuminated
Nov 19
Full
Nov 25
Last Quarter
Dec 3
New
Dec 9
First Quarter
Dec 17
Full

Hourly Weather History & Observations

Time (GST) Temp. Heat Index Dew Point Humidity Pressure Visibility Wind Dir Wind Speed Gust Speed Precip Events Conditions
12:00 AM 75.2 °F - 62.6 °F 65% 29.95 in - NE 8.1 mph - N/A   Clear
1:00 AM 74 °F - 62 °F 56% 29.96 in 6 mi ENE 8.1 mph - -   Scattered Clouds
1:00 AM 75.2 °F - 60.8 °F 61% 29.95 in - ENE 8.1 mph - N/A   Clear
2:00 AM 73.4 °F - 60.8 °F 65% 29.95 in - East 9.2 mph - N/A   Clear
3:00 AM 73.4 °F - 59.0 °F 61% 29.95 in - East 9.2 mph - N/A   Clear
4:00 AM 73 °F - 60 °F 55% 29.97 in 6 mi ENE 5.8 mph - -   Clear
4:00 AM 73.4 °F - 60.8 °F 65% 29.95 in - ENE 5.8 mph - N/A   Clear
5:00 AM 71.6 °F - 59.0 °F 64% 29.98 in - East 5.8 mph - N/A   Clear
6:00 AM 71.6 °F - 59.0 °F 64% 29.98 in - ESE 6.9 mph - N/A   Clear
7:00 AM 72 °F - 58 °F 51% 30.00 in 6 mi ESE 9.2 mph - -   Clear
7:00 AM 71.6 °F - 57.2 °F 60% 29.98 in - ESE 9.2 mph - N/A   Clear
8:00 AM 73.4 °F - 59.0 °F 61% 30.01 in 5.6 mi ESE 6.9 mph - N/A   Unknown
9:00 AM 78.8 °F - 60.8 °F 54% 30.04 in 5.6 mi SSE 11.5 mph - N/A   Unknown
10:00 AM 80.6 °F 81.1 °F 59.0 °F 48% 30.04 in 3.1 mi SSE 16.1 mph - N/A   Unknown
11:00 AM 82.4 °F 82.5 °F 59.0 °F 45% 30.01 in 3.7 mi SSE 16.1 mph - N/A   Unknown
12:00 PM 86.0 °F 85.4 °F 59.0 °F 40% 29.98 in 5.0 mi ESE 16.1 mph - N/A   Unknown
1:00 PM 86 °F - 58 °F 28% 29.95 in 5 mi ESE 15.0 mph - -   Widespread Dust
1:00 PM 86.0 °F 84.9 °F 57.2 °F 37% 29.95 in 5.0 mi ESE 15.0 mph - N/A   Unknown
2:00 PM 86.0 °F 84.9 °F 57.2 °F 37% 29.92 in 6.2 mi ESE 9.2 mph - N/A   Partly Cloudy
3:00 PM 87.8 °F 86.1 °F 55.4 °F 33% 29.92 in 6.2 mi ESE 10.4 mph - N/A   Partly Cloudy
4:00 PM 87 °F - 55 °F 24% 29.93 in 6 mi East 8.1 mph - -   Scattered Clouds
4:00 PM 87.8 °F 86.1 °F 55.4 °F 33% 29.92 in 6.2 mi East 8.1 mph - N/A   Partly Cloudy
4:36 PM 87.8 °F 87.6 °F 60.8 °F 40% 29.92 in 6.2 mi North 11.5 mph - N/A   Partly Cloudy
5:00 PM 84.2 °F 85.6 °F 64.4 °F 51% 29.92 in 6.2 mi North 12.7 mph - N/A   Partly Cloudy
6:00 PM 80.6 °F 82.7 °F 66.2 °F 61% 29.92 in 5.6 mi NNE 13.8 mph - N/A   Unknown
7:00 PM 80 °F - 66 °F 54% 29.96 in 6 mi North 8.1 mph - -   Scattered Clouds
7:00 PM 80.6 °F 82.7 °F 66.2 °F 61% 29.95 in - North 8.1 mph - N/A   Clear
8:00 PM 78.8 °F - 66.2 °F 65% 29.95 in - North 5.8 mph - N/A   Clear
9:00 PM 78.8 °F - 68.0 °F 69% 29.95 in - NNE 4.6 mph - N/A   Clear
10:00 PM 76 °F - 61 °F 50% 29.97 in 6 mi NNE 6.9 mph - -   Clear
10:00 PM 77.0 °F - 60.8 °F 57% 29.95 in - NNE 6.9 mph - N/A   Clear
11:00 PM 77.0 °F - 60.8 °F 57% 29.95 in - ENE 6.9 mph - N/A   Clear